This is the latest recevied weather packets stored in our database for station/object VA3XLC. If no packets are shown the sender has not sent any weather packets the latest 10 day(s).
| Time | Temp. | Humidity | Pressure | Rain* | Wind** | Luminosity | Snow |
|---|---|---|---|---|---|---|---|
| 1778072328 | 5.56° C | 85% | 976.8 hPa | - | - | 135 W/m² | - |
| 1778071106 | 5.56° C | 86% | 976.5 hPa | - | - | 89 W/m² | - |
| 1778069284 | 7.22° C | 86% | 976.5 hPa | - | - | 36 W/m² | - |
| 1778068984 | 7.22° C | 86% | 976.5 hPa | - | - | 33 W/m² | - |
| 1778064396 | 7.78° C | 86% | 975.6 hPa | - | - | 8 W/m² | - |
| 1778063474 | 7.78° C | 87% | 975.3 hPa | - | - | 6 W/m² | - |
| 1778062552 | 7.78° C | 90% | 975.1 hPa | - | - | 2 W/m² | - |
| 1778061050 | 7.78° C | 92% | 975.3 hPa | - | - | 0 W/m² | - |
| 1778060150 | 7.78° C | 92% | 975.1 hPa | - | - | 0 W/m² | - |
| 1778059849 | 7.78° C | 92% | 974.8 hPa | - | - | 0 W/m² | - |
| 1778058026 | 7.78° C | 91% | 975.4 hPa | - | - | 0 W/m² | - |
| 1778053716 | 7.78° C | 90% | 975.7 hPa | - | - | 0 W/m² | - |
| 1778052814 | 7.78° C | 91% | 975.9 hPa | - | - | 0 W/m² | - |
| 1778051312 | 7.78° C | 91% | 975.7 hPa | - | - | 0 W/m² | - |
| 1778049168 | 7.78° C | 92% | 975.5 hPa | - | - | 0 W/m² | - |
| 1778048568 | 7.78° C | 91% | 975.5 hPa | - | - | 0 W/m² | - |
| 1778048267 | 7.78° C | 92% | 975.5 hPa | - | - | 0 W/m² | - |
| 1778046464 | 8.33° C | 92% | 975.5 hPa | - | - | 0 W/m² | - |
| 1778043419 | 8.33° C | 91% | 975.9 hPa | - | - | 0 W/m² | - |
| 1778043119 | 8.33° C | 91% | 975.8 hPa | - | - | 0 W/m² | - |
| 1778042518 | 8.33° C | 91% | 976 hPa | - | - | 0 W/m² | - |
| 1778039775 | 8.89° C | 89% | 976.3 hPa | - | - | 0 W/m² | - |
| 1778037973 | 8.89° C | 87% | 976.3 hPa | - | - | 0 W/m² | - |
| 1778033423 | 9.44° C | 86% | 976.1 hPa | - | - | 0 W/m² | - |
| 1778029198 | 9.44° C | 79% | 975.5 hPa | - | - | 0 W/m² | - |
* Rain since midnight (hover to see other rain measurements)
** Current wind speed in m/s (hover to see current wind gust speed)